FDX1283 SACO-SAEZ

Flight info

Callsign FDX1283
Flight time 0h 51m
Altitude 35000
Route UTRAX1C UTRAX UW24 SNT SNT7U
Aircraft MD11/H-SDE1E2E3FGHIJ2J3J4J5M1RWXY/LB1D1

Departure

Time 2026-05-04 21:06
Airport Ingeniero Aeronáutico Ambrosio L.V. Taravella International Airport (SACO)

Arrival

Time 2026-05-04 21:57
Airport Ezeiza International Airport - Ministro Pistarini (SAEZ)
Time Latitude Longitude Altitude Speed Heading
2026-05-04 20:40 -31.31428 -64.21180 1616 ft 0 kts 224°
2026-05-04 20:57 -31.31421 -64.21172 1617 ft 2 kts 227°
2026-05-04 20:58 -31.31411 -64.21159 1617 ft 2 kts 227°
2026-05-04 20:58 -31.31401 -64.21146 1616 ft 2 kts 226°
2026-05-04 20:58 -31.31390 -64.21133 1616 ft 2 kts 227°
2026-05-04 20:58 -31.31380 -64.21121 1616 ft 2 kts 227°
2026-05-04 20:59 -31.31370 -64.21107 1616 ft 2 kts 227°
2026-05-04 20:59 -31.31364 -64.21100 1616 ft 1 kts 225°
2026-05-04 20:59 -31.31356 -64.21095 1616 ft 1 kts 180°
2026-05-04 20:59 -31.31355 -64.21095 1616 ft 0 kts 180°
2026-05-04 21:01 -31.31359 -64.21095 1616 ft 2 kts 180°
2026-05-04 21:01 -31.31406 -64.21095 1616 ft 8 kts 179°
2026-05-04 21:02 -31.31455 -64.21080 1616 ft 6 kts 129°
2026-05-04 21:02 -31.31464 -64.21036 1616 ft 6 kts 94°
2026-05-04 21:02 -31.31466 -64.20972 1616 ft 8 kts 89°
2026-05-04 21:02 -31.31478 -64.20896 1616 ft 11 kts 124°
2026-05-04 21:03 -31.31571 -64.20829 1616 ft 21 kts 168°
2026-05-04 21:03 -31.31749 -64.20821 1616 ft 26 kts 179°
2026-05-04 21:03 -31.31924 -64.20818 1616 ft 25 kts 178°
2026-05-04 21:03 -31.32100 -64.20814 1616 ft 25 kts 179°
2026-05-04 21:04 -31.32265 -64.20814 1616 ft 19 kts 183°
2026-05-04 21:04 -31.32383 -64.20837 1616 ft 13 kts 194°
2026-05-04 21:04 -31.32427 -64.20842 1616 ft 2 kts 146°
2026-05-04 21:04 -31.32430 -64.20824 1616 ft 2 kts 57°
2026-05-04 21:05 -31.32401 -64.20814 1616 ft 7 kts
2026-05-04 21:05 -31.32197 -64.20814 1616 ft 64 kts 359°
2026-05-04 21:05 -31.31499 -64.20826 1616 ft 134 kts 359°
2026-05-04 21:05 -31.30367 -64.20834 1666 ft 181 kts
2026-05-04 21:06 -31.29123 -64.20755 2150 ft 180 kts 20°
2026-05-04 21:06 -31.28023 -64.20110 2746 ft 180 kts 34°
2026-05-04 21:06 -31.27130 -64.19119 3402 ft 180 kts 46°
2026-05-04 21:06 -31.26342 -64.17937 3934 ft 188 kts 50°
2026-05-04 21:07 -31.25602 -64.16671 4534 ft 193 kts 53°
2026-05-04 21:07 -31.24895 -64.15316 5117 ft 198 kts 55°
2026-05-04 21:07 -31.24247 -64.13894 5666 ft 205 kts 70°
2026-05-04 21:07 -31.24118 -64.12216 6192 ft 216 kts 89°
2026-05-04 21:08 -31.24490 -64.10430 6439 ft 244 kts 112°
2026-05-04 21:08 -31.25378 -64.08625 6874 ft 259 kts 123°
2026-05-04 21:08 -31.26409 -64.06904 7432 ft 267 kts 123°
2026-05-04 21:08 -31.27494 -64.05077 8019 ft 275 kts 126°
2026-05-04 21:09 -31.28693 -64.03303 8454 ft 289 kts 132°
2026-05-04 21:09 -31.30148 -64.01617 9045 ft 301 kts 135°
2026-05-04 21:09 -31.31686 -63.99924 9690 ft 313 kts 136°
2026-05-04 21:09 -31.33296 -63.98145 10365 ft 326 kts 135°
2026-05-04 21:10 -31.35006 -63.96237 10558 ft 357 kts 136°
2026-05-04 21:10 -31.36886 -63.94142 10676 ft 390 kts 136°
2026-05-04 21:10 -31.38913 -63.91877 11025 ft 411 kts 136°
2026-05-04 21:10 -31.41007 -63.89524 11739 ft 422 kts 136°
2026-05-04 21:11 -31.43135 -63.87136 12561 ft 429 kts 136°
2026-05-04 21:11 -31.45327 -63.84686 13378 ft 436 kts 137°
2026-05-04 21:11 -31.47513 -63.82244 14243 ft 440 kts 137°
2026-05-04 21:11 -31.49752 -63.79735 15068 ft 446 kts 137°
2026-05-04 21:12 -31.51987 -63.77226 15872 ft 451 kts 137°
2026-05-04 21:12 -31.54248 -63.74691 16666 ft 455 kts 138°
2026-05-04 21:12 -31.56535 -63.72129 17467 ft 459 kts 138°
2026-05-04 21:12 -31.58874 -63.69512 18204 ft 464 kts 138°
2026-05-04 21:13 -31.61213 -63.66893 18943 ft 469 kts 139°
2026-05-04 21:13 -31.63587 -63.64239 19677 ft 473 kts 139°
2026-05-04 21:13 -31.65949 -63.61608 20371 ft 476 kts 139°
2026-05-04 21:13 -31.68371 -63.58926 21070 ft 480 kts 139°
2026-05-04 21:14 -31.70800 -63.56216 21731 ft 483 kts 138°
2026-05-04 21:14 -31.73210 -63.53479 22348 ft 487 kts 139°
2026-05-04 21:14 -31.75694 -63.50728 22965 ft 492 kts 139°
2026-05-04 21:14 -31.78179 -63.47987 23602 ft 496 kts 140°
2026-05-04 21:15 -31.80702 -63.45167 24150 ft 500 kts 139°
2026-05-04 21:15 -31.83230 -63.42319 24695 ft 505 kts 140°
2026-05-04 21:15 -31.85757 -63.39476 25267 ft 509 kts 139°
2026-05-04 21:15 -31.88246 -63.36474 25812 ft 515 kts 136°
2026-05-04 21:16 -31.90641 -63.33305 26386 ft 519 kts 133°
2026-05-04 21:16 -31.92929 -63.30002 26935 ft 523 kts 131°
2026-05-04 21:16 -31.95183 -63.26640 27438 ft 526 kts 130°
2026-05-04 21:16 -31.97448 -63.23241 27924 ft 530 kts 131°
2026-05-04 21:17 -31.99750 -63.19790 28379 ft 535 kts 131°
2026-05-04 21:17 -32.02050 -63.16346 29087 ft 533 kts 131°
2026-05-04 21:17 -32.04332 -63.12919 29788 ft 532 kts 131°
2026-05-04 21:17 -32.06601 -63.09513 30407 ft 532 kts 131°
2026-05-04 21:18 -32.08875 -63.06098 31025 ft 531 kts 131°
2026-05-04 21:18 -32.11165 -63.02656 31594 ft 530 kts 132°
2026-05-04 21:18 -32.13461 -62.99204 32166 ft 529 kts 132°
2026-05-04 21:18 -32.15716 -62.95824 32731 ft 527 kts 133°
2026-05-04 21:19 -32.18007 -62.92399 33210 ft 527 kts 133°
2026-05-04 21:19 -32.20324 -62.88931 33714 ft 526 kts 133°
2026-05-04 21:19 -32.22625 -62.85479 34226 ft 524 kts 133°
2026-05-04 21:19 -32.24961 -62.81977 34695 ft 523 kts 133°
2026-05-04 21:20 -32.27224 -62.78585 35139 ft 522 kts 133°
2026-05-04 21:20 -32.29470 -62.75221 35560 ft 521 kts 133°
2026-05-04 21:20 -32.31718 -62.71844 35915 ft 520 kts 133°
2026-05-04 21:20 -32.33937 -62.68508 36251 ft 519 kts 133°
2026-05-04 21:21 -32.36176 -62.65111 36545 ft 518 kts 134°
2026-05-04 21:21 -32.38397 -62.61776 36788 ft 518 kts 134°
2026-05-04 21:21 -32.42919 -62.55048 36812 ft 521 kts 135°
2026-05-04 21:22 -32.47421 -62.48348 36811 ft 519 kts 134°
2026-05-04 21:22 -32.51843 -62.41602 36822 ft 518 kts 134°
2026-05-04 21:23 -32.56295 -62.34819 36825 ft 518 kts 134°
2026-05-04 21:23 -32.60698 -62.28126 36824 ft 518 kts 134°
2026-05-04 21:24 -32.65156 -62.21355 36823 ft 518 kts 134°
2026-05-04 21:24 -32.69495 -62.14542 36818 ft 520 kts 131°
2026-05-04 21:25 -32.73629 -62.07496 36815 ft 522 kts 130°
2026-05-04 21:25 -32.77717 -62.00393 36817 ft 521 kts 130°
2026-05-04 21:26 -32.81842 -61.93235 36820 ft 521 kts 130°
2026-05-04 21:26 -32.85934 -61.86145 36820 ft 521 kts 130°
2026-05-04 21:27 -32.90044 -61.79037 36824 ft 520 kts 130°
2026-05-04 21:27 -32.94127 -61.71984 36825 ft 520 kts 130°
2026-05-04 21:28 -32.98230 -61.64897 36832 ft 520 kts 130°
2026-05-04 21:28 -33.02335 -61.57812 36829 ft 519 kts 131°
2026-05-04 21:29 -33.06428 -61.50761 36844 ft 519 kts 131°
2026-05-04 21:29 -33.10557 -61.43653 36834 ft 519 kts 131°
2026-05-04 21:30 -33.14693 -61.36538 36843 ft 518 kts 131°
2026-05-04 21:30 -33.18822 -61.29445 36846 ft 518 kts 130°
2026-05-04 21:31 -33.24919 -61.18764 36848 ft 519 kts 130°
2026-05-04 21:32 -33.28987 -61.11643 36850 ft 518 kts 130°
2026-05-04 21:32 -33.33035 -61.04489 36852 ft 519 kts 130°
2026-05-04 21:33 -33.37056 -60.97367 36858 ft 519 kts 129°
2026-05-04 21:33 -33.41047 -60.90146 36851 ft 519 kts 129°
2026-05-04 21:34 -33.45046 -60.82916 36856 ft 519 kts 129°
2026-05-04 21:34 -33.49043 -60.75706 36861 ft 519 kts 129°
2026-05-04 21:35 -33.53031 -60.68529 36861 ft 519 kts 130°
2026-05-04 21:35 -33.57043 -60.61312 36859 ft 517 kts 130°
2026-05-04 21:36 -33.61052 -60.54111 36854 ft 518 kts 130°
2026-05-04 21:36 -33.65073 -60.46896 36854 ft 518 kts 130°
2026-05-04 21:37 -33.69076 -60.39721 36856 ft 517 kts 130°
2026-05-04 21:37 -33.73392 -60.32828 36553 ft 508 kts 135°
2026-05-04 21:37 -33.75611 -60.29507 35210 ft 516 kts 134°
2026-05-04 21:38 -33.77844 -60.26119 34063 ft 519 kts 133°
2026-05-04 21:38 -33.80065 -60.22703 33076 ft 520 kts 133°
2026-05-04 21:38 -33.82287 -60.19266 32034 ft 523 kts 133°
2026-05-04 21:38 -33.84531 -60.15797 30462 ft 537 kts 133°
2026-05-04 21:39 -33.86851 -60.12252 29110 ft 541 kts 134°
2026-05-04 21:39 -33.89298 -60.08860 27879 ft 542 kts 136°
2026-05-04 21:39 -33.91799 -60.05506 26994 ft 538 kts 136°
2026-05-04 21:39 -33.94287 -60.02152 26178 ft 532 kts 136°
2026-05-04 21:40 -33.96725 -59.98839 25143 ft 525 kts 136°
2026-05-04 21:40 -33.99108 -59.95592 24130 ft 520 kts 136°
2026-05-04 21:40 -34.01479 -59.92346 23445 ft 513 kts 136°
2026-05-04 21:40 -34.03829 -59.89125 22668 ft 508 kts 136°
2026-05-04 21:41 -34.06121 -59.85987 21944 ft 503 kts 136°
2026-05-04 21:41 -34.08425 -59.82830 21244 ft 496 kts 136°
2026-05-04 21:41 -34.10703 -59.79711 20498 ft 491 kts 136°
2026-05-04 21:41 -34.12939 -59.76652 19438 ft 495 kts 136°
2026-05-04 21:42 -34.15225 -59.73530 18592 ft 491 kts 136°
2026-05-04 21:42 -34.17434 -59.70508 17897 ft 485 kts 136°
2026-05-04 21:42 -34.19653 -59.67477 17133 ft 481 kts 136°
2026-05-04 21:42 -34.21867 -59.64460 16387 ft 476 kts 136°
2026-05-04 21:43 -34.24028 -59.61512 15640 ft 472 kts 136°
2026-05-04 21:43 -34.26187 -59.58568 14864 ft 468 kts 135°
2026-05-04 21:43 -34.28355 -59.55611 14051 ft 464 kts 135°
2026-05-04 21:43 -34.30473 -59.52723 13263 ft 460 kts 135°
2026-05-04 21:44 -34.32572 -59.49834 12509 ft 455 kts 134°
2026-05-04 21:44 -34.34622 -59.46986 11700 ft 447 kts 133°
2026-05-04 21:44 -34.36634 -59.44190 10960 ft 429 kts 133°
2026-05-04 21:44 -34.38523 -59.41563 10758 ft 401 kts 133°
2026-05-04 21:45 -34.40311 -59.39077 10587 ft 383 kts 133°
2026-05-04 21:45 -34.42030 -59.36695 10393 ft 368 kts 133°
2026-05-04 21:45 -34.43689 -59.34402 10215 ft 353 kts 132°
2026-05-04 21:45 -34.45274 -59.32207 10066 ft 341 kts 131°
2026-05-04 21:46 -34.46793 -59.30073 9956 ft 331 kts 131°
2026-05-04 21:46 -34.48285 -59.27995 9893 ft 323 kts 132°
2026-05-04 21:46 -34.49757 -59.25973 9862 ft 315 kts 133°
2026-05-04 21:46 -34.51188 -59.24013 9609 ft 311 kts 133°
2026-05-04 21:47 -34.52609 -59.22062 9340 ft 305 kts 132°
2026-05-04 21:47 -34.53999 -59.20134 9131 ft 301 kts 133°
2026-05-04 21:47 -34.55374 -59.18238 8896 ft 300 kts 133°
2026-05-04 21:47 -34.56758 -59.16336 8641 ft 299 kts 132°
2026-05-04 21:48 -34.58118 -59.14453 8375 ft 299 kts 131°
2026-05-04 21:48 -34.59488 -59.12545 8109 ft 299 kts 132°
2026-05-04 21:48 -34.60868 -59.10652 7840 ft 298 kts 133°
2026-05-04 21:48 -34.62216 -59.08803 7560 ft 291 kts 132°
2026-05-04 21:49 -34.63535 -59.06981 7278 ft 282 kts 132°
2026-05-04 21:49 -34.64813 -59.05219 7011 ft 274 kts 132°
2026-05-04 21:49 -34.66047 -59.03517 6757 ft 263 kts 132°
2026-05-04 21:49 -34.67239 -59.01872 6554 ft 256 kts 132°
2026-05-04 21:50 -34.68412 -59.00253 6321 ft 255 kts 132°
2026-05-04 21:50 -34.69573 -58.98637 6115 ft 255 kts 132°
2026-05-04 21:50 -34.70748 -58.97011 5901 ft 255 kts 130°
2026-05-04 21:50 -34.71896 -58.95374 5673 ft 254 kts 130°
2026-05-04 21:51 -34.73047 -58.93767 5458 ft 252 kts 132°
2026-05-04 21:51 -34.74196 -58.92214 5208 ft 242 kts 130°
2026-05-04 21:51 -34.75269 -58.90681 5011 ft 233 kts 121°
2026-05-04 21:51 -34.75947 -58.88949 4805 ft 223 kts 104°
2026-05-04 21:52 -34.76310 -58.87128 4319 ft 223 kts 99°
2026-05-04 21:52 -34.76628 -58.85291 3878 ft 221 kts 98°
2026-05-04 21:52 -34.76938 -58.83500 3477 ft 217 kts 98°
2026-05-04 21:52 -34.77235 -58.81707 3098 ft 210 kts 98°
2026-05-04 21:53 -34.77523 -58.79999 2717 ft 205 kts 98°
2026-05-04 21:53 -34.77807 -58.78334 2363 ft 201 kts 97°
2026-05-04 21:53 -34.78089 -58.76676 2176 ft 198 kts 97°
2026-05-04 21:53 -34.78376 -58.75039 2226 ft 200 kts 98°
2026-05-04 21:54 -34.78672 -58.73380 2199 ft 200 kts 98°
2026-05-04 21:54 -34.78966 -58.71735 2209 ft 200 kts 98°
2026-05-04 21:54 -34.79266 -58.70070 2209 ft 197 kts 98°
2026-05-04 21:54 -34.79550 -58.68491 2200 ft 191 kts 98°
2026-05-04 21:55 -34.79827 -58.66939 1895 ft 180 kts 98°
2026-05-04 21:55 -34.80088 -58.65479 1716 ft 173 kts 100°
2026-05-04 21:55 -34.80356 -58.64079 1486 ft 168 kts 99°
2026-05-04 21:55 -34.80597 -58.62667 1283 ft 172 kts 97°
2026-05-04 21:56 -34.80830 -58.61249 1036 ft 167 kts 99°
2026-05-04 21:56 -34.81084 -58.59876 835 ft 166 kts 101°
2026-05-04 21:56 -34.81339 -58.58522 624 ft 165 kts 99°
2026-05-04 21:56 -34.81575 -58.57155 401 ft 164 kts 100°
2026-05-04 21:57 -34.81823 -58.55816 185 ft 163 kts 100°
2026-05-04 21:57 -34.82050 -58.54533 74 ft 124 kts 103°
2026-05-04 21:57 -34.82201 -58.53692 74 ft 91 kts 102°
2026-05-04 21:57 -34.82304 -58.53121 74 ft 37 kts 102°
2026-05-04 21:58 -34.82339 -58.52929 74 ft 10 kts 102°
2026-05-04 21:58 -34.82325 -58.52886 74 ft 5 kts 18°
2026-05-04 21:58 -34.82273 -58.52895 74 ft 10 kts 348°
2026-05-04 21:58 -34.82180 -58.52923 74 ft 17 kts 344°
2026-05-04 21:59 -34.82062 -58.52967 74 ft 18 kts 344°
2026-05-04 21:59 -34.81937 -58.53009 74 ft 18 kts 345°
2026-05-04 21:59 -34.81807 -58.53055 74 ft 19 kts 344°
2026-05-04 21:59 -34.81675 -58.53102 74 ft 20 kts 344°
2026-05-04 22:00 -34.81540 -58.53149 74 ft 20 kts 344°
2026-05-04 22:00 -34.81407 -58.53194 74 ft 19 kts 345°
2026-05-04 22:00 -34.81275 -58.53239 74 ft 19 kts 343°
2026-05-04 22:00 -34.81139 -58.53287 74 ft 20 kts 345°
2026-05-04 22:01 -34.81009 -58.53331 74 ft 18 kts 344°
2026-05-04 22:01 -34.80894 -58.53373 74 ft 12 kts 337°
2026-05-04 22:01 -34.80866 -58.53446 74 ft 7 kts 261°
2026-05-04 22:01 -34.80880 -58.53505 74 ft 7 kts 252°
2026-05-04 22:02 -34.80889 -58.53563 74 ft 5 kts 271°
2026-05-04 22:02 -34.80891 -58.53612 74 ft 7 kts 256°
2026-05-04 22:02 -34.80908 -58.53681 74 ft 8 kts 252°
2026-05-04 22:02 -34.80918 -58.53721 74 ft 2 kts 253°
2026-05-04 22:03 -34.80919 -58.53727 74 ft 0 kts 254°